Location: The Saddle
(36.8333°N, 80.3417°W)
Time: 01:10:36
(UTC-05:00)

AO-7 - Pass Details

Date: 14 December 2023
Orbit: 1440 x 1458 km, 102.0° (Epoch: 01 March)

Event Time Altitude Azimuth Distance (km) Brightness Sun altitude
Rises 04:16:25 0° 30° (NNE) 4,542 ? -37.0°
Reaches altitude 10° 04:19:52 10° 43° (NE) 3,562 ? -36.4°
Maximum altitude 04:26:29 26° 96° (E) 2,538 ? -35.0°
Drops below altitude 10° 04:33:04 10° 150° (SSE) 3,557 ? -33.7°
Sets 04:36:27 0° 162° (SSE) 4,534 ? -33.0°
